Location: Plzen
(49.7500°N, 13.3670°E)
Time: 23:26:15
(UTC+02:00)

ISS - Visible Passes

Search period start: 01 October 2020 00:00
Search period end: 11 October 2020 00:00
Orbit: 419 x 421 km, 51.6° (Epoch: 02 October)

Date Brightness Start Highest point End Pass type
(mag) Time Alt. Az. Time Alt. Az. Time Alt. Az.
01 Oct -3.7 19:29:24 10° WNW 19:32:47 76° NNE 19:35:43 13° E visible
01 Oct -2.1 21:06:22 10° W 21:08:41 30° WSW 21:08:41 30° WSW visible
02 Oct -3.1 20:19:00 10° WNW 20:22:16 48° SSW 20:23:18 34° SSE visible
03 Oct -3.5 19:31:40 10° WNW 19:35:02 67° SSW 19:37:58 13° ESE visible
03 Oct -1.2 21:09:13 10° W 21:10:57 16° SW 21:10:57 16° SW visible
04 Oct -1.8 20:21:31 10° W 20:24:15 23° SW 20:25:41 18° S visible
05 Oct -2.3 19:34:00 10° W 19:37:05 33° SSW 19:40:10 10° SSE visible
06 Oct -0.7 20:25:25 10° WSW 20:26:02 10° SW 20:26:39 10° SW visible
07 Oct -1.0 19:36:48 10° W 19:38:55 16° SW 19:41:03 10° S visible
